Hourly Data Report for January 08, 2022

TERRACE A
BRITISH COLUMBIA
Current Station Operator: NAVCAN

54°28'07.000" N
128°34'42.000" W
217.30 m
1068134
71951
YXT

Download Data

Hourly Data (January 2022)
Hourly Data Report for January 8, 2022
TIME
LST
Temp Definition
°C
Dew Point Definition
°C
Rel Hum Definition
%
Precip. Amount Definition
mm

Wind Dir Definition
10's deg

Wind Spd Definition
km/h
Visibility Definition
km
Stn Press Definition
kPa
Hmdx Definition


Wind Chill Definition


Weather Definition


00:00 -16.4 -19.3 79 LegendMM 1 22 24.1 98.47   -26 Snow,Blowing Snow
01:00 -16.3 -18.8 81 LegendMM 2 19 12.9 98.49   -26 Snow,Blowing Snow
02:00 -16.2 -18.6 82 LegendMM 1 12 12.9 98.47   -23 Snow,Blowing Snow
03:00 -16.0 -18.9 78 LegendMM 36 20 24.1 98.50   -25 Snow,Blowing Snow
04:00 -15.7 -18.5 79 LegendMM 36 26 24.1 98.53   -26 Snow,Blowing Snow
05:00 -15.6 -18.4 79 LegendMM 1 28 24.1 98.54   -26 Snow,Blowing Snow
06:00 -15.3 -18.1 79 LegendMM 36 26 8.1 98.52   -26 Snow,Blowing Snow
07:00 -14.9 -17.8 79 LegendMM 36 31 4.8 98.56   -26 Snow,Blowing Snow
08:00 -14.8 -17.5 80 LegendMM 1 28 8.1 98.53   -25 Snow,Blowing Snow
09:00 -14.5 -17.4 79 LegendMM 36 38 6.4 98.56   -27 Snow,Blowing Snow
10:00 -14.3 -16.9 80 LegendMM 36 30 6.4 98.59   -25 Snow,Blowing Snow
11:00 -13.8 -16.5 80 LegendMM 1 31 3.2 98.60   -25 Snow,Blowing Snow
12:00 -13.3 -16.0 81 LegendMM 1 27 3.2 98.62   -23 Snow,Blowing Snow
13:00 -13.4 -15.8 82 LegendMM 1 31 3.2 98.54   -24 Snow,Blowing Snow
14:00 -13.2 -15.3 84 LegendMM 1 36 1.2 98.46   -25 Snow,Blowing Snow
15:00 -13.2 -15.2 85 LegendMM 2 32 1.2 98.42   -24 Snow,Blowing Snow
16:00 -13.1 -14.9 86 LegendMM 3 18 1.0 98.43   -21 Snow,Blowing Snow
17:00 -12.9 -14.8 86 LegendMM 2 23 0.8 98.45   -22 Moderate Snow,Blowing Snow
18:00 -12.7 -14.5 86 LegendMM 2 19 1.0 98.47   -21 Snow
19:00 -12.7 -14.3 87 LegendMM 3 17 0.8 98.48   -21 Moderate Snow
20:00 -12.5 -14.2 87 LegendMM 1 26 1.2 98.59   -22 Snow
21:00 -12.8 -14.5 87 LegendMM 36 3 1.2 98.71   -15 Snow
22:00 -12.4 -14.4 86 LegendMM 1 8 1.2 98.82   -17 Snow
23:00 -12.1 -13.8 87 LegendMM 36 22 1.2 98.88   -21 Snow,Blowing Snow

Notes on Data Quality.

Legend

  • E = Estimated
  • M = Missing
  • NA = Not Available*
  • [empty] = Indicates an unobserved value
Date modified: